Powrót do katalogu

FENGYUN 1C DEB

LostPO
NORAD 31643·DEBRIS·🇨🇳 China

Wystrzelony May 10, 1999 z Taiyuan Satellite Launch Center

Loading…

Następne Przeloty (najbliższe 24 godziny)

TLE

NieaktualneSource: Space-Track

Epoka: Sep 29, 2024, 19:57 UTC

1 31643U 99025CAZ 24273.83177292  .00005668  00000-0  34750-2 0  9995
2 31643  98.3594 126.8056 0098363 103.9432 319.1130 14.03696979508023

Śledź FENGYUN 1C DEB w czasie rzeczywistym z AllMySat

Download on the App Store